Wind_Speed
9 14 23 31 39 46 53 63 63 64 58 53 54 54 48 45 41 35 26 28 24 20 21 19 23 28 13 4 9 9 13 15 16 19 24 30 31 33 35 32 33 31 34 39 40
14 18 25 32 39 47 56 64 61 59 55 57 55 52 48 44 37 30 28 29 23 20 14 13 13 19 7 4 8 11 11 12 15 15 17 22 24 28 29 32 30 26 25 26 28
19 25 32 41 49 56 60 62 59 59 60 59 56 50 46 40 34 29 29 27 24 22 18 25 19 20 12 0 6 9 11 15 18 16 16 20 17 22 18 24 27 25 19 19 18
26 33 43 50 56 61 63 64 63 62 60 58 54 48 44 38 33 29 30 25 20 17 16 13 16 13 14 8 3 4 8 12 14 16 19 18 16 21 13 15 19 22 20 14 13
35 40 49 54 57 60 62 61 61 59 59 55 52 47 41 36 31 28 24 23 17 17 22 22 13 6 5 4 5 7 10 15 12 15 15 14 15 13 12 11 14 14 15 14 11
39 44 51 53 56 57 58 59 57 57 54 52 48 41 36 32 30 27 23 22 16 16 14 8 2 4 1 3 4 2 3 12 11 13 15 16 14 11 10 11 16 13 9 11 12
43 48 50 52 52 52 55 55 55 54 51 48 45 38 33 30 25 23 22 19 13 15 6 16 11 10 11 6 9 11 6 8 15 13 10 11 11 10 11 11 9 7 16 11 10
46 48 49 50 51 52 53 54 53 50 49 45 41 37 34 30 26 23 20 18 15 11 7 6 2 2 6 3 4 3 2 6 10 9 9 7 10 15 11 11 7 8 11 14 3
48 49 49 49 49 53 54 55 52 49 47 42 38 35 32 26 24 23 21 16 14 14 8 8 6 6 10 6 6 5 6 11 9 14 12 7 12 13 8 13 14 13 9 16 13
51 50 50 49 50 51 52 54 50 48 43 39 36 31 28 24 19 25 23 21 15 14 10 18 13 10 10 13 12 13 13 13 12 19 22 17 14 22 22 17 18 10 8 9 11
52 50 50 48 50 51 51 54 49 44 40 35 32 29 29 25 19 19 23 21 17 18 11 13 17 14 14 15 17 13 18 17 22 20 21 20 21 23 23 21 18 14 8 13 13
52 51 49 47 49 51 48 53 48 46 45 41 34 32 30 30 21 26 27 25 21 18 14 10 12 11 17 18 20 23 25 22 25 25 25 22 20 21 20 20 18 22 25 27 33
53 51 49 49 49 48 47 46 48 45 39 38 36 35 33 28 23 30 30 24 22 21 22 20 18 22 23 23 23 22 23 26 34 32 26 28 25 27 23 21 24 29 32 32 32
53 52 50 50 50 52 50 46 46 44 42 38 36 35 33 31 30 22 23 24 25 21 20 22 26 26 22 25 28 25 26 30 35 27 30 29 27 26 24 24 24 26 32 36 39
55 54 52 52 51 52 49 49 46 44 41 38 36 33 32 31 28 26 25 27 27 26 23 23 25 29 33 34 31 30 31 31 29 29 29 26 28 28 30 30 29 31 32 35 38
54 54 53 52 52 51 50 49 47 47 45 41 39 36 33 31 30 31 30 29 29 30 31 31 32 31 34 34 32 31 34 35 30 27 33 37 39 37 35 34 37 37 35 33 32
54 54 53 54 54 53 51 48 44 44 43 42 41 38 35 32 31 32 33 33 31 32 35 37 39 42 40 38 37 32 30 33 35 40 36 39 40 43 40 38 36 37 38 33 31
53 53 55 56 55 53 52 50 49 47 44 42 42 38 35 35 34 28 30 33 36 36 37 38 36 37 38 40 41 40 39 39 41 43 41 37 37 41 37 34 32 34 36 35 33
51 50 51 56 55 52 48 47 46 45 42 42 41 39 38 37 33 33 34 32 34 36 35 37 38 37 39 42 43 43 39 43 45 40 40 37 36 40 36 32 32 35 33 34 34
49 50 50 49 54 52 50 46 45 45 44 42 39 38 39 39 37 32 28 31 34 34 34 40 39 39 36 37 42 42 46 46 47 46 44 40 38 34 30 31 33 37 37 36 37
47 46 46 47 47 49 49 49 49 47 45 47 47 43 42 42 40 37 34 35 43 45 41 41 38 40 46 45 43 44 45 49 50 51 50 47 42 33 29 31 35 37 39 39 38
47 45 43 44 45 44 44 45 45 45 46 45 45 42 41 41 41 39 40 45 37 41 46 47 45 43 47 45 44 47 51 51 52 52 52 51 51 35 30 34 36 35 36 38 38
46 45 43 41 39 38 41 42 43 45 46 46 45 44 44 46 46 44 44 42 49 41 40 44 47 50 50 48 48 50 52 53 51 49 50 48 47 35 34 34 36 37 37 38 38
43 43 42 41 41 41 40 38 37 37 35 38 42 43 42 39 41 42 41 44 47 50 53 52 48 51 54 53 52 52 50 50 49 49 49 46 43 41 40 40 40 39 38 40 40
40 38 39 39 40 42 40 40 42 41 40 39 37 39 38 39 41 44 44 44 46 50 51 51 51 51 52 54 51 48 48 51 49 45 42 43 44 45 43 43 43 43 41 42 42
44 43 41 42 44 43 40 41 41 40 39 39 40 42 42 43 45 48 48 49 50 51 52 50 49 49 49 50 49 46 50 45 46 47 44 43 45 47 46 46 47 48 47 45 46
44 46 44 41 39 40 40 42 40 37 39 39 41 43 42 43 45 47 46 47 47 47 47 47 47 46 43 46 45 47 48 47 45 47 47 45 47 48 49 50 51 52 52 51 53
Wind_Direction
122 135 135 135 139 142 140 143 145 146 146 148 148 147 144 143 140 138 132 136 133 130 123 120 109 109 118 133 71 37 47 58 49 37 35 36 33 40 44 46 54 58 64 77 77
140 143 143 143 143 143 143 146 143 146 148 149 148 146 143 140 141 139 141 134 132 132 129 104 91 100 117 13 48 40 37 39 44 32 24 37 29 31 31 45 48 54 59 70 77
147 145 143 140 140 140 140 145 149 148 149 148 147 146 143 143 144 146 142 137 147 123 114 64 84 90 110 236 12 21 23 36 32 16 12 11 14 26 31 33 43 47 54 57 64
148 144 143 141 140 140 140 143 145 147 149 149 148 146 146 148 149 149 144 154 141 135 120 86 80 126 163 239 224 6 25 12 11 21 24 13 36 37 31 31 31 30 38 58 63
151 149 147 146 145 144 143 145 148 150 151 151 151 149 149 152 151 147 150 150 134 117 97 70 76 39 281 269 84 25 3 14 37 38 24 24 29 28 40 27 9 19 14 18 43
154 154 152 152 150 148 148 149 151 152 153 154 154 151 153 160 159 153 154 150 135 126 120 102 47 280 157 284 67 105 64 37 22 20 29 22 14 2 9 345 0 343 353 356 358
158 157 156 156 153 151 152 153 155 154 155 156 156 156 158 163 168 162 160 156 149 150 172 183 236 176 95 73 38 57 18 356 346 6 359 25 13 2 13 348 352 350 356 329 339
162 161 161 160 158 157 156 156 157 158 159 159 161 165 162 165 160 162 166 163 166 149 196 224 288 54 12 32 48 87 332 342 1 32 2 343 352 341 343 317 335 318 331 301 332
166 164 164 164 163 161 161 161 162 162 164 166 169 172 169 170 173 172 174 181 183 170 188 239 245 251 278 290 311 318 318 299 306 325 301 309 302 346 312 334 317 313 347 322 325
169 167 169 168 167 168 167 164 166 169 171 171 174 176 174 177 185 181 178 186 184 202 236 220 222 250 270 280 292 290 305 319 330 327 327 316 314 296 299 310 328 329 336 298 300
174 172 172 172 172 170 169 170 172 175 178 182 182 181 182 178 177 191 193 207 207 197 225 242 246 232 274 291 295 290 289 302 298 315 321 311 314 311 302 297 276 302 268 285 271
177 175 174 176 176 175 174 176 179 180 181 180 185 185 188 186 176 192 203 214 216 223 227 231 239 258 272 281 289 285 287 290 301 316 312 304 302 300 306 301 287 285 291 289 269
180 179 178 179 179 181 180 180 183 185 189 187 189 190 193 204 190 194 203 200 205 208 217 220 236 257 272 285 277 304 288 292 302 299 300 307 301 300 293 281 288 297 299 300 298
181 183 184 183 184 183 185 186 187 190 190 194 197 200 200 206 208 204 203 212 219 223 233 243 257 266 271 281 296 293 289 289 286 283 293 307 302 294 294 293 287 293 293 294 291
184 186 187 188 188 189 188 191 192 195 198 198 204 206 209 212 218 218 222 229 231 240 249 255 267 262 267 271 281 283 282 281 276 288 294 300 303 303 298 296 295 292 293 287 283
186 187 189 191 191 194 194 196 197 198 203 206 210 215 219 221 225 230 233 237 242 243 250 258 265 270 271 273 277 278 281 283 287 285 294 301 305 304 302 300 300 301 300 292 283
187 189 191 193 194 196 197 200 205 207 206 213 217 222 226 232 238 244 251 253 255 258 258 262 266 269 273 282 283 280 281 284 285 290 294 299 303 304 306 306 301 300 301 296 293
190 189 193 193 196 200 202 201 205 209 213 217 223 225 232 236 240 247 255 260 260 261 262 263 263 270 274 278 281 281 286 291 292 294 293 294 302 299 300 300 298 300 306 306 306
192 192 193 196 199 202 205 211 214 217 221 225 229 233 237 240 242 245 249 255 261 265 268 273 271 274 279 278 282 281 284 291 294 291 292 293 297 296 301 299 300 299 293 292 297
194 196 196 196 202 206 208 212 217 224 223 227 232 235 236 244 245 243 246 252 261 262 275 282 274 277 278 283 287 285 287 290 292 291 290 292 294 297 296 293 289 286 286 286 289
195 199 200 201 203 206 211 215 219 223 231 231 235 234 238 242 243 245 248 247 258 266 276 272 277 275 277 282 284 285 285 287 290 291 292 292 293 296 289 285 281 280 282 289 296
197 199 201 205 208 209 212 217 221 226 229 235 240 241 243 244 250 250 248 253 260 264 265 271 277 278 284 285 284 285 286 287 287 288 292 296 298 299 294 287 286 289 290 295 300
199 200 203 204 206 211 217 220 225 229 230 233 238 239 244 249 253 254 255 253 254 259 264 270 275 279 279 280 281 281 282 284 287 289 290 288 290 295 289 284 282 281 283 291 294
203 206 208 211 210 213 215 218 220 224 230 242 244 248 249 250 253 255 256 259 261 259 263 268 271 276 280 280 281 281 282 282 281 282 285 289 294 295 290 284 282 283 286 289 290
205 209 212 215 222 227 226 226 228 229 231 234 241 247 250 254 256 259 259 260 264 269 270 274 276 278 279 281 281 279 278 280 284 282 282 287 291 290 290 290 289 287 286 290 294
209 213 214 217 220 221 225 237 241 242 246 247 251 254 256 259 263 267 269 272 273 273 276 277 276 277 277 277 280 279 276 279 279 285 287 287 286 287 289 289 289 289 291 290 292
214 219 221 224 228 233 234 235 239 249 252 253 256 260 263 264 266 269 274 274 274 274 275 276 276 276 273 277 280 277 280 280 281 283 285 283 283 285 287 289 291 293 294 296 297
Height
10940 10939 10938 10939 10941 10945 10949 10956 10964 10973 10982 10989 10997 11003 11010 11015 11019 11024 11028 11033 11037 11036 11036 11038 11040 11046 11050 11048 11046 11046 11046 11043 11041 11041 11040 11036 11034 11032 11030 11029 11026 11026 11025 11022 11020
10943 10943 10942 10944 10946 10950 10955 10962 10971 10979 10986 10993 11000 11008 11014 11017 11020 11026 11031 11036 11038 11035 11038 11041 11044 11048 11049 11049 11048 11048 11048 11047 11044 11043 11042 11040 11039 11035 11033 11032 11032 11031 11032 11030 11029
10945 10946 10947 10949 10953 10957 10962 10969 10977 10983 10990 10997 11005 11011 11016 11018 11022 11027 11032 11036 11034 11038 11043 11047 11050 11051 11051 11048 11047 11047 11050 11048 11046 11045 11043 11041 11040 11037 11038 11038 11038 11038 11037 11034 11032
10948 10950 10953 10956 10960 10964 10969 10975 10982 10989 10995 11002 11008 11013 11017 11020 11025 11029 11033 11034 11038 11041 11046 11050 11050 11053 11052 11052 11048 11049 11050 11050 11048 11046 11044 11042 11040 11038 11039 11040 11040 11040 11040 11038 11036
10951 10955 10959 10962 10966 10971 10977 10982 10987 10993 10999 11005 11012 11016 11020 11022 11027 11031 11034 11037 11040 11043 11050 11054 11054 11052 11054 11053 11051 11053 11053 11051 11048 11046 11046 11042 11042 11041 11041 11041 11041 11041 11042 11042 11040
10953 10958 10962 10966 10971 10977 10982 10987 10993 10998 11004 11010 11015 11020 11023 11026 11030 11034 11035 11039 11043 11048 11052 11053 11042 11051 11050 11053 11054 11056 11053 11052 11051 11047 11047 11045 11045 11045 11044 11044 11044 11043 11044 11043 11042
10954 10960 10965 10969 10975 10981 10987 10992 10997 11003 11008 11013 11018 11023 11026 11028 11032 11037 11038 11041 11045 11049 11051 11050 11041 11049 11052 11052 11052 11051 11051 11054 11051 11049 11049 11048 11046 11045 11046 11047 11045 11045 11044 11043 11042
10955 10961 10967 10973 10978 10983 10990 10996 11001 11006 11011 11015 11020 11023 11028 11030 11034 11036 11040 11043 11044 11049 11049 11049 11048 11049 11048 11050 11054 11053 11054 11054 11050 11053 11049 11048 11047 11045 11045 11045 11043 11043 11042 11040 11039
10955 10962 10967 10974 10980 10986 10992 10998 11003 11008 11012 11016 11021 11026 11030 11033 11035 11037 11042 11043 11044 11047 11049 11046 11048 11049 11048 11049 11051 11051 11051 11050 11049 11048 11047 11049 11049 11046 11043 11041 11040 11040 11039 11038 11037
10955 10961 10968 10974 10980 10987 10993 10999 11005 11010 11014 11018 11022 11026 11030 11034 11036 11037 11041 11043 11043 11044 11045 11048 11048 11047 11046 11048 11050 11052 11050 11048 11048 11047 11046 11045 11044 11041 11040 11039 11037 11037 11036 11035 11033
10954 10961 10968 10974 10981 10987 10994 10999 11004 11008 11013 11019 11024 11028 11030 11033 11037 11040 11040 11039 11043 11045 11045 11044 11043 11045 11044 11046 11046 11047 11047 11047 11048 11048 11045 11042 11041 11038 11037 11036 11036 11035 11035 11035 11031
10952 10959 10967 10973 10979 10986 10993 11000 11004 11008 11010 11015 11022 11027 11031 11034 11034 11039 11038 11040 11043 11045 11047 11048 11044 11045 11043 11043 11043 11044 11045 11045 11044 11044 11043 11041 11039 11036 11033 11032 11031 11029 11027 11027 11024
10950 10958 10965 10972 10979 10987 10994 10999 11003 11008 11014 11019 11022 11025 11028 11032 11035 11036 11038 11040 11040 11040 11040 11042 11045 11044 11040 11041 11042 11041 11042 11043 11040 11042 11040 11038 11036 11032 11031 11030 11026 11023 11020 11017 11014
10948 10955 10962 10969 10976 10983 10990 10996 11002 11007 11011 11017 11020 11023 11026 11029 11034 11036 11037 11036 11036 11039 11040 11041 11042 11041 11041 11039 11039 11039 11041 11042 11038 11037 11037 11034 11034 11031 11027 11025 11023 11021 11017 11010 11007
10945 10952 10959 10967 10975 10982 10990 10996 11000 11005 11011 11013 11016 11019 11023 11025 11029 11032 11033 11033 11035 11037 11037 11036 11037 11036 11036 11036 11036 11038 11038 11036 11034 11033 11031 11029 11028 11025 11021 11019 11017 11015 11013 11009 11004
10941 10949 10957 10964 10972 10979 10986 10991 10996 11000 11005 11009 11012 11015 11018 11022 11025 11026 11028 11029 11030 11031 11031 11030 11029 11028 11029 11029 11029 11031 11027 11025 11028 11028 11025 11021 11016 11015 11012 11012 11008 11006 11006 11003 10999
10938 10945 10953 10961 10969 10975 10981 10988 10994 10997 11002 11005 11009 11011 11015 11020 11021 11022 11024 11027 11028 11026 11025 11025 11024 11023 11021 11021 11022 11021 11020 11019 11020 11022 11022 11015 11007 11001 10999 10996 10992 10989 10989 10994 10991
10935 10943 10952 10961 10968 10974 10980 10984 10987 10992 10997 11001 11004 11010 11014 11014 11016 11018 11018 11018 11021 11021 11021 11020 11018 11017 11016 11014 11013 11012 11012 11008 11010 11011 11012 11011 11006 10996 10994 10990 10985 10980 10975 10974 10975
10933 10941 10948 10956 10963 10971 10978 10983 10988 10989 10993 10996 11001 11006 11007 11007 11012 11012 11012 11013 11013 11013 11014 11015 11013 11011 11010 11008 11005 11004 11003 11001 11000 11002 11002 11004 11000 10991 10986 10982 10977 10972 10971 10968 10968
10930 10936 10945 10954 10961 10967 10973 10978 10980 10984 10988 10992 10995 11000 11001 11002 11006 11005 11005 11005 11006 11005 11006 11007 11004 11003 11002 11000 11000 10998 10993 10990 10989 10989 10992 10995 10993 10989 10981 10975 10972 10966 10963 10961 10960
10928 10935 10944 10951 10957 10964 10969 10973 10975 10979 10984 10985 10987 10990 10992 10992 10997 10999 11001 11002 10998 11000 11000 10999 10998 10996 10993 10993 10991 10987 10984 10982 10980 10979 10977 10981 10985 10985 10977 10971 10964 10960 10956 10952 10949
10924 10932 10940 10947 10954 10959 10964 10967 10972 10975 10977 10980 10984 10989 10990 10989 10989 10995 10996 10994 10994 10992 10992 10992 10990 10986 10983 10985 10983 10978 10975 10972 10969 10968 10964 10962 10964 10973 10969 10960 10954 10952 10947 10943 10939
10921 10930 10936 10943 10948 10953 10957 10960 10965 10968 10970 10973 10977 10980 10981 10982 10984 10987 10986 10987 10986 10986 10985 10983 10983 10977 10976 10977 10975 10970 10966 10962 10959 10956 10955 10955 10954 10962 10958 10953 10949 10946 10942 10937 10932
10919 10926 10934 10940 10944 10947 10949 10954 10957 10959 10964 10968 10970 10972 10974 10976 10975 10977 10978 10977 10976 10976 10976 10975 10976 10971 10964 10964 10964 10959 10955 10950 10948 10946 10945 10943 10945 10947 10946 10944 10940 10936 10932 10928 10924
10917 10922 10927 10934 10938 10943 10948 10950 10951 10953 10956 10959 10962 10965 10967 10969 10968 10967 10968 10969 10969 10966 10965 10965 10963 10961 10955 10950 10950 10948 10943 10939 10939 10939 10939 10938 10936 10935 10932 10929 10927 10925 10923 10919 10914
10910 10914 10919 10924 10928 10933 10939 10943 10946 10950 10953 10955 10956 10957 10960 10960 10958 10957 10957 10957 10956 10954 10951 10952 10950 10948 10943 10940 10938 10936 10929 10932 10929 10928 10930 10931 10929 10924 10920 10917 10912 10910 10909 10907 10902
10904 10909 10916 10921 10926 10931 10938 10938 10941 10946 10947 10948 10947 10948 10951 10949 10946 10946 10946 10944 10944 10943 10941 10939 10938 10937 10934 10931 10930 10922 10922 10921 10922 10919 10920 10923 10918 10914 10908 10904 10900 10897 10893 10891 10887